Location: ?????????
(44.2517°N, 135.2292°E)
Time: 07:27:59
(UTC+00:00)

Cosmos 1842 Rocket - Pass Details

Date: 19 May 2025
Orbit: 600 x 626 km, 82.5° (Epoch: 15 June)

Event Time Altitude Azimuth Distance (km) Brightness Sun altitude
Exits shadow 13:20:45 38° 81° (E) 927 4.3 -22.3°
Drops below altitude 10° 13:24:26 10° 24° (NNE) 1,952 6.7 -22.5°
Sets 13:26:45 0° 17° (NNE) 2,860 7.8 -22.7°
